TimeCDT,TemperatureF,Dew PointF,Humidity,Sea Level PressureIn,VisibilityMPH,Wind Direction,Wind SpeedMPH,Gust SpeedMPH,PrecipitationIn,Events,Conditions,WindDirDegrees,DateUTC
12:15 AM,82.4,73.4,74,29.83,10.0,SSE,12.7,21.9,N/A,,Mostly Cloudy,160,2013-06-01 05:15:00
12:35 AM,82.4,73.4,74,29.83,10.0,SSE,8.1,21.9,N/A,,Mostly Cloudy,160,2013-06-01 05:35:00
12:55 AM,80.6,73.4,79,29.83,10.0,SSE,10.4,21.9,N/A,,Overcast,150,2013-06-01 05:55:00
1:15 AM,80.6,73.4,79,29.82,10.0,SSE,8.1,16.1,N/A,,Overcast,160,2013-06-01 06:15:00
1:35 AM,80.6,71.6,74,29.82,10.0,South,6.9,-,N/A,,Overcast,170,2013-06-01 06:35:00
1:55 AM,80.6,71.6,74,29.80,10.0,SSE,6.9,-,N/A,,Mostly Cloudy,160,2013-06-01 06:55:00
2:15 AM,80.6,71.6,74,29.79,10.0,South,12.7,20.7,N/A,,Mostly Cloudy,190,2013-06-01 07:15:00
2:35 AM,80.6,71.6,74,29.81,10.0,SW,4.6,19.6,N/A,,Mostly Cloudy,220,2013-06-01 07:35:00
2:55 AM,78.8,71.6,78,29.81,10.0,South,8.1,17.3,N/A,,Overcast,180,2013-06-01 07:55:00
3:15 AM,78.8,71.6,78,29.81,10.0,SSW,10.4,17.3,N/A,,Overcast,200,2013-06-01 08:15:00
3:35 AM,78.8,71.6,78,29.82,10.0,SSW,6.9,-,N/A,,Overcast,200,2013-06-01 08:35:00
3:55 AM,78.8,71.6,78,29.81,10.0,South,4.6,18.4,N/A,,Overcast,190,2013-06-01 08:55:00
4:15 AM,78.8,69.8,74,29.81,10.0,South,6.9,-,N/A,,Overcast,190,2013-06-01 09:15:00
4:35 AM,78.8,69.8,74,29.82,10.0,SSW,8.1,19.6,N/A,,Overcast,200,2013-06-01 09:35:00
4:55 AM,78.8,69.8,74,29.84,10.0,SW,5.8,20.7,N/A,,Overcast,220,2013-06-01 09:55:00
5:15 AM,78.8,69.8,74,29.85,10.0,SSW,5.8,-,N/A,,Overcast,210,2013-06-01 10:15:00
5:35 AM,78.8,69.8,74,29.85,10.0,South,4.6,-,N/A,,Overcast,190,2013-06-01 10:35:00
5:55 AM,77.0,69.8,78,29.84,10.0,South,6.9,-,N/A,,Overcast,170,2013-06-01 10:55:00
6:15 AM,78.8,69.8,74,29.82,10.0,SSE,6.9,-,N/A,,Overcast,160,2013-06-01 11:15:00
6:35 AM,78.8,69.8,74,29.83,10.0,SSE,4.6,-,N/A,,Overcast,160,2013-06-01 11:35:00
6:55 AM,78.8,69.8,74,29.82,10.0,South,9.2,17.3,N/A,,Overcast,180,2013-06-01 11:55:00
7:15 AM,78.8,69.8,74,29.83,7.0,South,8.1,18.4,0.01,Thunderstorm,Thunderstorm,190,2013-06-01 12:15:00
7:35 AM,77.0,71.6,83,29.85,10.0,SSW,9.2,21.9,0.01,Thunderstorm,Overcast,200,2013-06-01 12:35:00
7:55 AM,77.0,71.6,83,29.87,10.0,South,5.8,18.4,0.01,Thunderstorm,Overcast,180,2013-06-01 12:55:00
8:15 AM,71.6,62.6,73,29.89,10.0,North,11.5,17.3,N/A,Thunderstorm,Thunderstorm,10,2013-06-01 13:15:00
8:35 AM,68.0,68.0,100,29.92,2.0,NW,5.8,-,0.21,Thunderstorm,Overcast,320,2013-06-01 13:35:00
8:55 AM,66.2,66.2,100,29.91,0.8,SSE,5.8,-,1.47,,Overcast,160,2013-06-01 13:55:00
9:15 AM,66.2,66.2,100,29.91,1.2,ESE,3.5,-,0.49,Thunderstorm,Thunderstorm,120,2013-06-01 14:15:00
9:35 AM,68.0,-9999,N/A,29.92,2.0,SE,3.5,-,0.81,Thunderstorm,Thunderstorm,130,2013-06-01 14:35:00
9:55 AM,68.0,-9999,N/A,29.90,5.0,ESE,3.5,-,0.97,Thunderstorm,Overcast,120,2013-06-01 14:55:00
10:15 AM,68.0,-9999,N/A,29.90,3.0,Calm,Calm,-,0.09,Thunderstorm,Overcast,0,2013-06-01 15:15:00
10:35 AM,68.0,-9999,N/A,29.91,5.0,Calm,Calm,-,0.18,Thunderstorm,Mostly Cloudy,0,2013-06-01 15:35:00
10:55 AM,68.0,68.0,100,29.89,10.0,Calm,Calm,-,0.20,Thunderstorm,Thunderstorm,0,2013-06-01 15:55:00
11:15 AM,68.0,68.0,100,29.90,7.0,West,4.6,-,0.03,Thunderstorm,Thunderstorm,260,2013-06-01 16:15:00
11:35 AM,69.8,69.8,100,29.88,4.0,WSW,5.8,-,0.12,Thunderstorm,Thunderstorm,250,2013-06-01 16:35:00
11:55 AM,69.8,69.8,100,29.90,5.0,WSW,8.1,18.4,0.27,,Overcast,250,2013-06-01 16:55:00
12:15 PM,69.8,69.8,100,29.91,2.0,WSW,11.5,18.4,0.37,Thunderstorm,Thunderstorm,250,2013-06-01 17:15:00
12:35 PM,69.8,69.8,100,29.91,3.0,WNW,8.1,-,0.56,Thunderstorm,Thunderstorm,290,2013-06-01 17:35:00
12:55 PM,69.8,-9999,N/A,29.92,1.8,Calm,Calm,-,0.62,Thunderstorm,Overcast,0,2013-06-01 17:55:00
1:15 PM,69.8,-9999,N/A,29.91,10.0,Calm,Calm,-,N/A,,Overcast,0,2013-06-01 18:15:00
1:35 PM,69.8,-9999,N/A,29.92,1.8,Calm,Calm,-,0.20,Thunderstorm,Overcast,0,2013-06-01 18:35:00
1:55 PM,69.8,-9999,N/A,29.92,1.2,Calm,Calm,-,0.63,Thunderstorm,Thunderstorm,0,2013-06-01 18:55:00
2:15 PM,69.8,-9999,N/A,29.92,3.0,Calm,Calm,-,0.07,Thunderstorm,Overcast,0,2013-06-01 19:15:00
2:35 PM,69.8,-9999,N/A,29.91,7.0,Calm,Calm,-,0.16,,Overcast,0,2013-06-01 19:35:00
2:55 PM,71.6,-9999,N/A,29.91,7.0,Calm,Calm,-,0.18,Thunderstorm,Thunderstorm,0,2013-06-01 19:55:00
3:15 PM,71.6,-9999,N/A,29.92,10.0,Calm,Calm,-,N/A,Thunderstorm,Overcast,0,2013-06-01 20:15:00
3:35 PM,71.6,71.6,100,29.91,10.0,NE,4.6,-,N/A,,Overcast,50,2013-06-01 20:35:00
3:55 PM,71.6,71.6,100,29.91,7.0,Calm,Calm,-,N/A,Thunderstorm,Thunderstorm,0,2013-06-01 20:55:00
4:15 PM,71.6,-9999,N/A,29.91,4.0,NNE,6.9,-,0.01,Thunderstorm,Overcast,20,2013-06-01 21:15:00
4:35 PM,69.8,-9999,N/A,29.92,2.0,North,4.6,-,0.01,,Overcast,350,2013-06-01 21:35:00
4:55 PM,69.8,-9999,N/A,29.91,2.0,Calm,Calm,-,0.01,,Overcast,0,2013-06-01 21:55:00
5:15 PM,69.8,-9999,N/A,29.91,4.0,Calm,Calm,-,N/A,,Overcast,0,2013-06-01 22:15:00
5:35 PM,71.6,71.6,100,29.92,10.0,Calm,Calm,-,N/A,,Overcast,0,2013-06-01 22:35:00
5:55 PM,71.6,71.6,100,29.90,10.0,Calm,Calm,-,N/A,,Overcast,0,2013-06-01 22:55:00
6:15 PM,73.4,73.4,100,29.90,10.0,Calm,Calm,-,N/A,,Overcast,0,2013-06-01 23:15:00
6:35 PM,73.4,73.4,100,29.91,10.0,ENE,3.5,-,N/A,Thunderstorm,Overcast,60,2013-06-01 23:35:00
6:55 PM,73.4,73.4,100,29.91,10.0,Calm,Calm,-,N/A,,Overcast,0,2013-06-01 23:55:00
7:15 PM,71.6,71.6,100,29.92,10.0,Calm,Calm,-,N/A,,Overcast,0,2013-06-02 00:15:00
7:35 PM,71.6,71.6,100,29.93,10.0,Calm,Calm,-,N/A,,Overcast,0,2013-06-02 00:35:00
7:55 PM,73.4,73.4,100,29.93,10.0,Calm,Calm,-,N/A,,Mostly Cloudy,0,2013-06-02 00:55:00
8:15 PM,71.6,71.6,100,29.93,10.0,Calm,Calm,-,N/A,,Overcast,0,2013-06-02 01:15:00
8:35 PM,71.6,71.6,100,29.94,10.0,Calm,Calm,-,N/A,,Mostly Cloudy,0,2013-06-02 01:35:00
8:55 PM,69.8,69.8,100,29.95,10.0,Calm,Calm,-,N/A,,Mostly Cloudy,0,2013-06-02 01:55:00
9:15 PM,69.8,69.8,100,29.96,5.0,Calm,Calm,-,N/A,,Mostly Cloudy,0,2013-06-02 02:15:00
9:35 PM,69.8,-9999,N/A,29.96,5.0,Calm,Calm,-,N/A,,Overcast,0,2013-06-02 02:35:00
9:55 PM,69.8,-9999,N/A,29.96,5.0,Calm,Calm,-,N/A,,Mostly Cloudy,0,2013-06-02 02:55:00
10:15 PM,68.0,-9999,N/A,29.96,4.0,Calm,Calm,-,N/A,,Scattered Clouds,0,2013-06-02 03:15:00
10:35 PM,68.0,-9999,N/A,29.97,3.0,Calm,Calm,-,N/A,,Scattered Clouds,0,2013-06-02 03:35:00
10:55 PM,66.2,-9999,N/A,29.96,3.0,Calm,Calm,-,N/A,,Scattered Clouds,0,2013-06-02 03:55:00
11:15 PM,66.2,66.2,100,29.97,2.0,Calm,Calm,-,N/A,,Clear,0,2013-06-02 04:15:00
11:35 PM,64.4,64.4,100,29.97,3.0,Calm,Calm,-,N/A,,Clear,0,2013-06-02 04:35:00
11:55 PM,62.6,62.6,100,29.97,7.0,West,3.5,-,N/A,,Scattered Clouds,270,2013-06-02 04:55:00